Beatrice, NE

12:42 AM CST on January 24, 2017 (GMT -0600)
Beatrice Municipal

Weather History for KBIE - August, 2013

Change the Weather History Date:

Saturday, August 24, 2013

  Actual Average Record
Temperature  
Mean Temperature 83 °F -  
Max Temperature 92 °F 87 °F 103 °F (1948)
Min Temperature 74 °F 63 °F 47 °F (2015)
Cooling Degree Days 18    
Growing Degree Days 33 (Base 50)    
Moisture  
Dew Point 71 °F    
Average Humidity 69    
Maximum Humidity 89    
Minimum Humidity 46    
Precipitation  
Precipitation 0.00 in - - ()
Sea Level Pressure  
Sea Level Pressure 30.05 in    
Wind  
Wind Speed 11 mph (SSE)    
Max Wind Speed 22 mph    
Max Gust Speed 26 mph    
Visibility 10 miles    
Events      
Averages and records for this station are not official NWS values.
T = Trace of Precipitation, MM = Missing Value Source: NWS Daily Summary

Daily Weather History Graph

Daily Weather History Graph

Search for Another Location

Airport or City:

Trip Planner

Search our weather history database for the weather conditions in past years. The results will help you decide how hot, cold, wet, or windy it might be!

Date:

Astronomy

Aug. 24, 2013 Rise Set
Actual Time 6:47 AM CDT 8:10 PM CDT
Civil Twilight 6:18 AM CDT 8:39 PM CDT
Nautical Twilight 5:44 AM CDT 9:13 PM CDT
Astronomical Twilight 5:08 AM CDT 9:49 PM CDT
Moon 10:04 PM CDT 10:48 AM CDT
Length of Visible Light 14h 20m
Length of Day
13h 23m
Waning Gibbous, 84% of the Moon is Illuminated
Aug 24
Waning Gibbous
Aug 28
Last Quarter
Sep 5
New
Sep 12
First Quarter
Sep 19
Full

Hourly Weather History & Observations

Time (CDT) Temp. Heat Index Dew Point Humidity Pressure Visibility Wind Dir Wind Speed Gust Speed Precip Events Conditions
12:15 AM 79.7 °F - 69.8 °F 72% 30.01 in 10.0 mi SSE 10.4 mph - N/A   Clear
12:35 AM 79.0 °F - 69.8 °F 73% 30.02 in 10.0 mi SSE 11.5 mph - N/A   Clear
12:55 AM 78.3 °F - 70.2 °F 76% 30.02 in 10.0 mi SSE 9.2 mph - N/A   Clear
1:15 AM 77.0 °F - 70.7 °F 81% 30.01 in 10.0 mi SE 12.7 mph - N/A   Light Drizzle
1:35 AM 76.5 °F - 70.5 °F 82% 30.02 in 10.0 mi SSE 11.5 mph 16.1 mph N/A   Scattered Clouds
1:55 AM 77.0 °F - 70.3 °F 80% 30.02 in 10.0 mi SSE 10.4 mph - N/A   Clear
2:15 AM 76.8 °F - 70.2 °F 80% 30.03 in 10.0 mi SSE 8.1 mph - N/A   Clear
2:35 AM 76.5 °F - 70.2 °F 81% 30.03 in 10.0 mi SSE 6.9 mph - N/A   Clear
2:55 AM 76.5 °F - 70.3 °F 81% 30.03 in 10.0 mi SSE 9.2 mph - N/A   Clear
3:15 AM 76.1 °F - 70.3 °F 82% 30.03 in 10.0 mi SSE 8.1 mph - N/A   Clear
3:35 AM 76.1 °F - 70.3 °F 82% 30.03 in 10.0 mi SSE 6.9 mph - N/A   Clear
3:55 AM 75.6 °F - 70.3 °F 84% 30.03 in 10.0 mi SSE 9.2 mph - N/A   Clear
4:15 AM 75.6 °F - 70.7 °F 85% 30.03 in 10.0 mi SSE 8.1 mph - N/A   Clear
4:35 AM 75.6 °F - 70.7 °F 85% 30.03 in 10.0 mi SSE 8.1 mph - N/A   Clear
4:55 AM 75.4 °F - 70.9 °F 86% 30.04 in 10.0 mi SSE 6.9 mph - N/A   Clear
5:15 AM 75.4 °F - 71.1 °F 86% 30.04 in 10.0 mi SSE 6.9 mph - N/A   Clear
5:35 AM 75.2 °F - 71.1 °F 87% 30.05 in 10.0 mi SSE 8.1 mph - N/A   Clear
5:55 AM 74.8 °F - 71.2 °F 88% 30.05 in 10.0 mi SSE 9.2 mph - N/A   Clear
6:15 AM 74.8 °F - 71.2 °F 88% 30.04 in 10.0 mi SSE 10.4 mph - N/A   Clear
6:35 AM 74.7 °F - 71.2 °F 89% 30.05 in 10.0 mi SSE 8.1 mph - N/A   Clear
6:55 AM 75.0 °F - 71.4 °F 89% 30.06 in 10.0 mi SSE 9.2 mph - N/A   Clear
7:15 AM 75.2 °F - 71.6 °F 89% 30.06 in 10.0 mi SSE 10.4 mph - N/A   Clear
7:35 AM 75.4 °F - 71.6 °F 88% 30.06 in 10.0 mi SSE 11.5 mph - N/A   Clear
7:55 AM 75.4 °F - 71.6 °F 88% 30.07 in 10.0 mi SSE 10.4 mph - N/A   Clear
8:15 AM 76.1 °F - 72.0 °F 87% 30.07 in 10.0 mi SSE 11.5 mph 16.1 mph N/A   Clear
8:35 AM 77.0 °F - 72.1 °F 85% 30.07 in 10.0 mi South 9.2 mph - N/A   Clear
8:55 AM 78.4 °F - 72.7 °F 82% 30.07 in 10.0 mi South 13.8 mph - N/A   Clear
9:15 AM 79.7 °F - 73.0 °F 80% 30.07 in 10.0 mi South 15.0 mph 20.7 mph N/A   Clear
9:35 AM 79.7 °F - 73.0 °F 80% 30.08 in 10.0 mi South 11.5 mph - N/A   Clear
9:55 AM 81.1 °F 86.0 °F 72.9 °F 76% 30.08 in 10.0 mi South 13.8 mph - N/A   Clear
10:15 AM 82.6 °F 88.6 °F 73.4 °F 74% 30.08 in 10.0 mi South 12.7 mph 17.3 mph N/A   Clear
10:35 AM 83.1 °F 88.9 °F 72.9 °F 71% 30.08 in 10.0 mi South 12.7 mph 19.6 mph N/A   Clear
10:55 AM 84.2 °F 90.9 °F 73.6 °F 70% 30.08 in 10.0 mi South 11.5 mph 16.1 mph N/A   Clear
11:15 AM 84.2 °F 90.3 °F 72.7 °F 68% 30.08 in 10.0 mi South 13.8 mph 21.9 mph N/A   Clear
11:35 AM 84.7 °F 91.0 °F 72.5 °F 67% 30.08 in 10.0 mi South 13.8 mph 23.0 mph N/A   Clear
11:55 AM 86.2 °F 93.8 °F 73.4 °F 66% 30.08 in 10.0 mi South 12.7 mph 21.9 mph N/A   Clear
12:15 PM 86.4 °F 93.4 °F 73.0 °F 64% 30.07 in 10.0 mi SSE 15.0 mph 19.6 mph N/A   Clear
12:35 PM 87.1 °F 92.4 °F 70.5 °F 58% 30.07 in 10.0 mi South 13.8 mph - N/A   Clear
12:55 PM 88.0 °F 93.8 °F 71.2 °F 57% 30.07 in 10.0 mi South 15.0 mph 23.0 mph N/A   Clear
1:15 PM 88.7 °F 95.7 °F 72.3 °F 58% 30.07 in 10.0 mi South 13.8 mph 18.4 mph N/A   Clear
1:35 PM 89.4 °F 96.3 °F 71.6 °F 56% 30.06 in 10.0 mi South 15.0 mph 21.9 mph N/A   Clear
1:55 PM 90.0 °F 95.9 °F 70.9 °F 53% 30.06 in 10.0 mi SSE 18.4 mph 24.2 mph N/A   Clear
2:15 PM 90.7 °F 96.4 °F 70.5 °F 51% 30.06 in 10.0 mi SSE 17.3 mph - N/A   Clear
2:35 PM 91.2 °F 97.5 °F 70.7 °F 51% 30.05 in 10.0 mi SSE 17.3 mph 21.9 mph N/A   Clear
2:55 PM 91.2 °F 97.0 °F 70.2 °F 50% 30.05 in 10.0 mi SSE 18.4 mph 24.2 mph N/A   Clear
3:15 PM 91.8 °F 97.0 °F 69.8 °F 48% 30.04 in 10.0 mi South 21.9 mph 25.3 mph N/A   Clear
3:35 PM 92.3 °F 98.1 °F 70.2 °F 48% 30.04 in 10.0 mi South 18.4 mph 24.2 mph N/A   Clear
3:55 PM 91.9 °F 97.4 °F 69.4 °F 48% 30.03 in 10.0 mi SSE 18.4 mph 24.2 mph N/A   Clear
4:15 PM 92.3 °F 97.6 °F 69.6 °F 47% 30.02 in 10.0 mi South 18.4 mph - N/A   Clear
4:35 PM 91.9 °F 96.4 °F 68.5 °F 46% 30.02 in 10.0 mi South 18.4 mph 26.5 mph N/A   Clear
4:55 PM 91.9 °F 96.4 °F 68.5 °F 46% 30.02 in 10.0 mi SSE 15.0 mph 26.5 mph N/A   Clear
5:15 PM 91.6 °F 96.7 °F 69.6 °F 48% 30.02 in 10.0 mi South 17.3 mph 21.9 mph N/A   Clear
5:35 PM 91.4 °F 96.8 °F 70.0 °F 49% 30.02 in 10.0 mi SSE 17.3 mph 21.9 mph N/A   Clear
5:55 PM 90.9 °F 96.2 °F 69.8 °F 50% 30.02 in 10.0 mi South 17.3 mph 21.9 mph N/A   Clear
6:15 PM 90.5 °F 95.5 °F 69.8 °F 50% 30.02 in 10.0 mi South 15.0 mph - N/A   Clear
6:35 PM 89.8 °F 95.1 °F 70.0 °F 52% 30.02 in 10.0 mi SSE 13.8 mph 21.9 mph N/A   Clear
6:55 PM 88.9 °F 93.8 °F 69.8 °F 53% 30.02 in 10.0 mi SSE 11.5 mph 19.6 mph N/A   Clear
7:15 PM 88.0 °F 92.9 °F 70.0 °F 55% 30.02 in 10.0 mi South 13.8 mph 20.7 mph N/A   Clear
7:35 PM 87.3 °F 92.0 °F 69.8 °F 56% 30.02 in 10.0 mi SSE 12.7 mph - N/A   Clear
7:55 PM 86.0 °F 90.4 °F 69.8 °F 58% 30.02 in 10.0 mi SSE 11.5 mph - N/A   Clear
8:15 PM 84.9 °F 89.4 °F 70.0 °F 61% 30.03 in 10.0 mi SSE 10.4 mph - N/A   Clear
8:35 PM 84.2 °F 88.1 °F 69.6 °F 61% 30.03 in 10.0 mi SSE 10.4 mph 16.1 mph N/A   Clear
8:55 PM 82.9 °F 86.7 °F 69.8 °F 64% 30.03 in 10.0 mi SSE 11.5 mph - N/A   Clear
9:15 PM 82.6 °F 86.1 °F 69.3 °F 64% 30.05 in 10.0 mi SSE 11.5 mph - N/A   Clear
9:35 PM 82.2 °F 85.5 °F 68.9 °F 64% 30.06 in 10.0 mi SSE 10.4 mph 18.4 mph N/A   Clear
9:55 PM 82.4 °F 85.4 °F 68.2 °F 62% 30.06 in 10.0 mi SSE 13.8 mph 18.4 mph N/A   Clear
10:15 PM 81.5 °F 84.4 °F 68.4 °F 64% 30.07 in 10.0 mi SSE 11.5 mph - N/A   Clear
10:35 PM 80.6 °F 83.6 °F 69.1 °F 68% 30.07 in 10.0 mi SSE 11.5 mph - N/A   Clear
10:55 PM 80.2 °F 83.5 °F 70.2 °F 71% 30.08 in 10.0 mi South 12.7 mph 16.1 mph N/A   Clear
11:15 PM 79.7 °F - 70.9 °F 74% 30.09 in 10.0 mi South 9.2 mph - N/A   Clear
11:35 PM 79.0 °F - 71.6 °F 78% 30.09 in 10.0 mi SSE 9.2 mph - N/A   Clear
11:55 PM 78.8 °F - 71.6 °F 78% 30.08 in 10.0 mi SSE 10.4 mph - N/A   Clear